カタログに戻る

STARLINK-5628

運用中通信VLEO
NORAD 55466·PAYLOAD·🇺🇸 United States

打ち上げ Feb 2, 2023 から Cape Canaveral Space Force Station

Loading…

次のパス (今後24時間)

TLE

最新Source: CelesTrak SupGP

元期: Sep 15, 2026, 03:02 UTC

1 55466C 23015T   26258.12687500  .00033310  00000+0  12067-2 0  2584
2 55466  43.0029 339.0022 0001337 262.0945  58.0156 15.27555358    19

AllMySatでSTARLINK-5628をリアルタイム追跡

Download on the App Store